GW3067 Weather Reports


time (UTC)temp
C
wind
direction
speed
KPH
gust
KPH
rain 1hr
cm
rain 24hr
cm
rain mn
cm
humidity
%
barometer
mb
20260504090105 8 26 12.9 24.1 0.00 0.00 0.00 51 1015.2
20260504081553 10 121 11.3 29.0 0.00 0.00 0.00 48 1014.2
20260504044555 8 182 9.7 19.3 0.00 0.00 0.00 45 1011.1
20260504043053 9 181 8.0 14.5 0.00 0.00 0.00 45 1011.1
20260504041552 9 198 9.7 17.7 0.00 0.00 0.00 44 1011.0
20260504040057 10 162 6.4 16.1 0.00 0.00 0.00 43 1010.9
20260504034550 10 157 6.4 12.9 0.00 0.00 0.00 42 1011.0
20260504033047 10 175 4.8 11.3 0.00 0.00 0.00 41 1010.9
20260504031549 11 180 4.8 9.7 0.00 0.00 0.00 40 1010.9
20260504030048 12 174 6.4 12.9 0.00 0.00 0.00 36 1010.8
20260504024550 13 159 4.8 11.3 0.00 0.00 0.00 32 1010.8
20260504023048 16 302 3.2 4.8 0.00 0.00 0.00 28 1010.7
20260504021550 17 0 1.6 8.0 0.00 0.00 0.00 22 1010.6
20260504020050 17 266 3.2 17.7 0.00 0.00 0.00 20 1010.6
20260504014549 18 300 4.8 11.3 0.00 0.00 0.00 21 1010.8
20260504013103 19 249 4.8 17.7 0.00 0.00 0.00 23 1010.8
20260504011548 19 267 8.0 20.9 0.00 0.00 0.00 23 1011.0
20260504010057 20 304 6.4 19.3 0.00 0.00 0.00 21 1010.9
20260504004555 20 301 6.4 25.7 0.00 0.00 0.00 21 1011.0
20260504003048 20 345 9.7 25.7 0.00 0.00 0.00 22 1011.1
20260504001549 20 319 8.0 25.7 0.00 0.00 0.00 22 1011.2
20260504000056 20 296 6.4 27.4 0.00 0.00 0.00 20 1011.2
20260503234549 20 324 12.9 27.4 0.00 0.00 0.00 21 1011.1
20260503233049 20 348 9.7 27.4 0.00 0.00 0.00 20 1011.1
20260503231553 21 317 6.4 19.3 0.00 0.00 0.00 21 1011.2
20260503230055 21 313 9.7 27.4 0.00 0.00 0.00 22 1011.4
20260503224549 21 280 8.0 25.7 0.00 0.00 0.00 23 1011.7
20260503223052 20 272 12.9 24.1 0.00 0.00 0.00 23 1011.7
20260503221546 21 311 8.0 17.7 0.00 0.00 0.00 26 1011.8
20260503220049 20 258 9.7 27.4 0.00 0.00 0.00 26 1012.2
20260503214550 20 307 9.7 33.8 0.00 0.00 0.00 28 1012.2
20260503213048 20 292 9.7 25.7 0.00 0.00 0.00 30 1012.4
20260503211549 20 304 9.7 29.0 0.00 0.00 0.00 27 1012.7
20260503210047 20 285 6.4 22.5 0.00 0.00 0.00 27 1013.0
20260503204547 20 224 6.4 20.9 0.00 0.00 0.00 27 1013.2
20260503203052 19 317 6.4 20.9 0.00 0.00 0.00 28 1013.4
20260503201547 19 254 9.7 22.5 0.00 0.00 0.00 34 1013.4
20260503200050 18 275 8.0 17.7 0.00 0.00 0.00 36 1013.6
20260503194548 18 303 6.4 22.5 0.00 0.00 0.00 34 1013.7
20260503193048 18 259 8.0 24.1 0.00 0.00 0.00 34 1013.9
20260503191557 18 224 6.4 22.5 0.00 0.00 0.00 32 1014.0
20260503190052 18 294 8.0 22.5 0.00 0.00 0.00 34 1014.2
20260503184559 18 227 9.7 22.5 0.00 0.00 0.00 30 1014.5
20260503183049 17 360 9.7 22.5 0.00 0.00 0.00 33 1014.9
20260503181548 17 242 11.3 29.0 0.00 0.00 0.00 33 1015.2
20260503180101 17 234 8.0 20.9 0.00 0.00 0.00 35 1015.2
20260503174550 17 227 9.7 24.1 0.00 0.00 0.00 34 1015.4
20260503173056 17 293 9.7 19.3 0.00 0.00 0.00 38 1015.3
20260503171550 16 338 9.7 19.3 0.00 0.00 0.00 40 1015.5